Location: Unspecified
(36.4118°N, 0.0000°E)
Time: 04:21:46
(UTC+00:00)

NOAA 12 DEB - Visible Passes

Search period start: 04 April 2026 00:00
Search period end: 14 April 2026 00:00
Orbit: 751 x 767 km, 98.4° (Epoch: 26 March)

Date Brightness Start Highest point End Pass type
(mag) Time Alt. Az. Time Alt. Az. Time Alt. Az.
4 Apr ? 04:06:53 10° ENE 04:09:36 15° E 04:12:19 10° SE visible
5 Apr ? 05:05:14 10° NNE 05:10:12 61° ESE 05:15:08 10° S visible
6 Apr ? 04:27:23 10° NE 04:31:26 24° E 04:35:28 10° SSE visible
8 Apr ? 04:48:29 10° NNE 04:53:12 40° E 04:57:53 10° SSE visible
9 Apr ? 04:11:13 10° NE 04:14:20 16° E 04:17:27 10° SE visible
11 Apr ? 04:31:53 10° NE 04:36:08 27° E 04:40:22 10° SSE visible
12 Apr ? 03:56:09 10° ENE 03:57:10 11° E 03:58:11 10° ESE visible
13 Apr ? 04:53:02 10° NNE 04:57:51 45° E 05:02:39 10° S visible
